Location: Meanaryar
(48.4161°N, 4.7315°W)
Time: 17:33:01
(UTC+00:00)

Cosmos 2082 Rocket - Pass Details

Date: 18 September 2020
Orbit: 834 x 853 km, 71.0° (Epoch: 30 October)

Event Time Altitude Azimuth Distance (km) Brightness Sun altitude
Rises 20:38:29 0° 336° (NNW) 3,393 6.2 -22.0°
Reaches altitude 10° 20:41:27 10° 351° (N) 2,456 5.1 -22.5°
Maximum altitude 20:45:52 23° 43° (NE) 1,712 3.7 -23.1°
Enters shadow 20:46:37 22° 55° (NE) 1,736 3.6 -23.2°
